Omak, WA

6:28 AM PDT on August 25, 2016 (GMT -0700)
Omak

Weather History for KOMK - October, 2013

Change the Weather History Date:

Thursday, October 3, 2013

  Actual Average Record
Temperature  
Mean Temperature 51 °F 55 °F  
Max Temperature 64 °F 70 °F 84 °F (1935)
Min Temperature 38 °F 41 °F 24 °F (1950)
Degree Days  
Heating Degree Days 14 10  
Month to date heating degree days 55 29  
Since 1 July heating degree days 188 190  
Cooling Degree Days 0 0  
Month to date cooling degree days 0 0  
Year to date cooling degree days 814 664  
Moisture  
Dew Point 35 °F    
Average Humidity 60    
Maximum Humidity 92    
Minimum Humidity 27    
Precipitation  
Precipitation 0.00 in 0.02 in 0.32 in (1938)
Month to date precipitation 0.03 0.07  
Year to date precipitation 8.86 9.93  
Sea Level Pressure  
Sea Level Pressure 30.30 in    
Wind  
Wind Speed 10 mph (NNW)    
Max Wind Speed 20 mph    
Max Gust Speed 25 mph    
Visibility 10 miles    
Events      
T = Trace of Precipitation, MM = Missing Value Source: NWS Daily Summary

Daily Weather History Graph

Daily Weather History Graph

Search for Another Location

Airport or City:

Trip Planner

Search our weather history database for the weather conditions in past years. The results will help you decide how hot, cold, wet, or windy it might be!

Date:

Astronomy

Oct. 03, 2013 Rise Set
Actual Time 7:00 AM PDT 6:32 PM PDT
Civil Twilight 6:29 AM PDT 7:03 PM PDT
Nautical Twilight 5:53 AM PDT 7:39 PM PDT
Astronomical Twilight 5:16 AM PDT 8:16 PM PDT
Moon 5:35 AM PDT (10/3) 5:44 PM PDT (10/3)
Length of Visible Light 12h 33m
Length of Day
11h 31m
Waning Crescent, 2% of the Moon is Illuminated
Oct 3
Waning Crescent
Oct 4
New
Oct 11
First Quarter
Oct 18
Full
Oct 26
Last Quarter

Hourly Weather History & Observations

Time (PDT) Temp. Windchill Dew Point Humidity Pressure Visibility Wind Dir Wind Speed Gust Speed Precip Events Conditions
12:53 AM 41.0 °F 35.2 °F 37.9 °F 89% 30.17 in 10.0 mi NNW 9.2 mph - N/A   Clear
1:53 AM 42.1 °F 36.6 °F 39.0 °F 89% 30.18 in 10.0 mi NW 9.2 mph - N/A   Clear
2:53 AM 39.0 °F 34.0 °F 37.0 °F 93% 30.20 in 10.0 mi North 6.9 mph - N/A   Clear
3:53 AM 39.9 °F 34.5 °F 37.0 °F 89% 30.21 in 10.0 mi NW 8.1 mph - N/A   Clear
4:53 AM 42.1 °F 36.6 °F 37.9 °F 85% 30.22 in 10.0 mi NNW 9.2 mph - N/A   Clear
5:53 AM 39.9 °F 33.9 °F 36.0 °F 86% 30.25 in 10.0 mi NW 9.2 mph - N/A   Clear
6:53 AM 37.9 °F 32.7 °F 34.0 °F 86% 30.27 in 10.0 mi WNW 6.9 mph - N/A   Clear
7:53 AM 43.0 °F 38.2 °F 39.0 °F 86% 30.28 in 10.0 mi NNW 8.1 mph - N/A   Clear
8:53 AM 46.0 °F 41.0 °F 39.9 °F 79% 30.31 in 10.0 mi North 10.4 mph - N/A   Clear
9:53 AM 50.0 °F - 39.9 °F 68% 30.32 in 10.0 mi North 15.0 mph - N/A   Clear
10:53 AM 54.0 °F - 39.0 °F 57% 30.32 in 10.0 mi North 17.3 mph 23.0 mph N/A   Clear
11:53 AM 55.9 °F - 39.0 °F 53% 30.32 in 10.0 mi North 15.0 mph 23.0 mph N/A   Clear
12:53 PM 60.1 °F - 39.9 °F 47% 30.32 in 10.0 mi North 11.5 mph - N/A   Clear
1:53 PM 62.1 °F - 33.1 °F 34% 30.31 in 10.0 mi North 13.8 mph 21.9 mph N/A   Clear
2:53 PM 63.0 °F - 30.9 °F 30% 30.31 in 10.0 mi North 12.7 mph 24.2 mph N/A   Clear
3:53 PM 63.0 °F - 28.0 °F 27% 30.31 in 10.0 mi NNE 13.8 mph 19.6 mph N/A   Clear
4:53 PM 62.1 °F - 28.0 °F 28% 30.32 in 10.0 mi North 10.4 mph 18.4 mph N/A   Clear
5:53 PM 59.0 °F - 28.0 °F 31% 30.33 in 10.0 mi North 9.2 mph - N/A   Clear
6:53 PM 51.1 °F - 30.9 °F 46% 30.35 in 10.0 mi NNW 6.9 mph - N/A   Overcast
7:53 PM 48.9 °F - 33.1 °F 54% 30.38 in 10.0 mi NW 9.2 mph - N/A   Partly Cloudy
9:53 PM 46.9 °F - 35.1 °F 63% 30.41 in 10.0 mi WNW 9.2 mph - N/A   Clear
10:53 PM 43.0 °F 39.5 °F 33.1 °F 68% 30.43 in 10.0 mi WNW 5.8 mph - N/A   Clear
11:53 PM 39.9 °F 35.1 °F 32.0 °F 73% 30.44 in 10.0 mi NNW 6.9 mph - N/A   Clear